20060708,185552,1.438,32.961000,-117.298880,0.1468,22.7070,33.5740,1.6040,154530,24.0,22.768,33.393,48.672,2365.85,0.0,3.233,22.366, NaN, NaN,22.782,   NaN,21.47,1013.65,92.36,21.47,334.2,333.6,4.0,4.1,262.9,262.4,3.7,3.8,51.9, NaN,19.0,282.4,6.4,1152384950,1152384950,2,0.7,068150,068150,282.2,32.960946,-117.298735,0.12,NaN,NaN,22.773, NaN,NaN,1.6, NaN, NaN
20060708,204533,1.452,32.952460,-117.285970,0.1709,22.9930,33.5720,1.5440,161099,24.1,23.136,33.526,49.211,2432.73,0.0,3.644,23.054, NaN, NaN,22.777,   NaN,22.20,1012.94,89.34,22.21,0.4,357.4,3.8,3.7,257.7,254.5,3.5,3.4,28.5, NaN,19.0,266.1,292.2,1152391520,1152391520,2,0.5,074720,074720,266.0,32.952438,-117.285823,0.61,NaN,NaN,23.142, NaN,NaN,1.4, NaN, NaN
20060708,233633,1.491,33.244520,-117.465620,0.0990,23.2110,33.5220,0.6530,171359,23.8,23.377,33.500,49.417,2333.03,0.0,2.616,23.232, NaN, NaN,22.688,   NaN,22.64,1011.26,83.10,22.64,357.5,351.9,3.9,4.0,254.3,248.3,3.6,3.7,22.8, NaN,18.0,253.2,299.0,1152401780,1152401779,2,0.0,084980,084979,253.0,33.244540,-117.465463,0.37,NaN,NaN,23.383, NaN,NaN,1.8, NaN, NaN
20060709,025646,1.561,32.903290,-117.397100,0.2055,23.2210,33.5830,0.5970,183390,23.9,23.784,33.564,49.909,50.81,0.0,3.065,23.321, NaN, NaN,22.618,   NaN,21.66,1011.08,88.09,21.66,356.6,355.0,2.8,2.9,264.2,262.4,2.5,2.6,NaN, NaN,22.0,266.4,207.7,1152413809,1152413808,2,1.0,010609,010608,266.2,32.903230,-117.396973,0.28,NaN,NaN,23.790, NaN,NaN,1.4, NaN, NaN
20060709,060200,1.610,32.839630,-117.534200,0.0875,21.0460,33.4960,0.2680,194489,23.8,21.561,33.474,47.583, 1.87,0.0,1.869,21.288, NaN, NaN,23.180,   NaN,20.58,1012.11,90.69,20.55,340.7,337.3,2.1,2.2,284.4,280.7,1.9,2.0,NaN, NaN,21.0,302.6,237.1,1152424910,1152424909,2,0.5,021710,021709,302.7,32.839526,-117.534101,0.06,NaN,NaN,21.566, NaN,NaN,1.3, NaN, NaN
20060709,101614,1.423,32.674910,-117.872330,0.0920,20.5160,33.5220,0.3460,209759,24.0,21.162,33.548,47.283, 2.10,0.0,1.794,20.403, NaN, NaN,23.345,   NaN,18.83,1011.34,95.88,18.82,21.7,18.7,5.5,5.1,277.0,273.9,5.2,4.7,NaN, NaN,18.0,253.4,261.2,1152440180,1152440179,2,0.2,036980,036979,253.4,32.674895,-117.872186,0.61,NaN,NaN,21.167, NaN,NaN,1.7, NaN, NaN
20060709,143823,1.376,32.516160,-118.220130,0.0860,19.8400,33.4760,0.3970,225479,24.0,20.024,33.447,46.039,671.35,0.0,1.944,19.874, NaN, NaN,23.571,   NaN,16.01,1011.49,96.22,16.02,339.2,340.1,4.5,4.6,291.7,292.9,3.8,4.0,NaN, NaN,17.0,305.1,356.7,1152455900,1152455899,2,2.3,052700,052699,304.3,32.516085,-118.220040,1.16,NaN,NaN,20.029, NaN,NaN,2.0, NaN, NaN
20060709,190726,2.394,32.350840,-118.564660,0.0680,19.4060,33.4900,0.4490,241620,23.7,19.609,33.459,45.649,2149.21,0.0,1.645,19.466, NaN, NaN,23.688,   NaN,15.46,1011.77,93.23,15.46,9.5,9.8,6.2,5.8,299.0,299.4,5.8,5.4,NaN, NaN,19.0,296.0,263.2,1152472040,1152472039,2,0.7,068840,068839,296.2,32.350757,-118.564560,0.46,NaN,NaN,19.614, NaN,NaN,2.4, NaN, NaN
20060709,231724,1.462,32.175030,-118.892120,0.2333,17.4150,33.5600,0.7210,256620,26.4,17.641,33.532,43.829,1629.87,0.0,3.420,17.512, NaN, NaN,24.235,   NaN,14.64,1009.51,95.49,14.63,358.6,355.7,8.3,8.2,289.5,286.4,7.9,7.8,1488.5, NaN,18.0,289.7,220.4,1152487039,1152487039,2,0.6,083840,083839,289.3,32.174932,-118.892005,0.89,NaN,NaN,17.645, NaN,NaN,1.5, NaN, NaN
20060710,032552,1.206,32.009790,-119.250880,0.4814,15.7870,33.5420,1.1220,271529,26.3,16.021,33.511,42.251, 1.35,0.0,4.858,15.906, NaN, NaN,24.598,   NaN,14.56,1009.79,97.96,14.55,11.3,8.2,8.6,8.2,308.7,305.4,8.1,7.6,NaN, NaN,19.0,294.7,284.4,1152501950,1152501950,2,0.9,012350,012350,294.4,32.009710,-119.250798,1.07,NaN,NaN,16.025, NaN,NaN,1.4, NaN, NaN
20060710,071733,1.657,31.841240,-119.574680,0.4183,15.5890,33.3060,0.6200,285419,26.6,15.810,33.278,41.787, 0.85,0.0,4.298,15.662, NaN, NaN,24.466,   NaN,14.56,1010.65,97.30,14.56,22.4,18.3,6.7,6.3,309.3,305.0,6.3,5.8,NaN, NaN,18.0,278.2,182.3,1152515840,1152515840,2,1.3,026240,026240,278.5,31.841226,-119.574543,0.11,NaN,NaN,15.814, NaN,NaN,1.4, NaN, NaN
20060710,132513,1.788,31.519600,-120.263970,0.0466,17.7450,33.2900,0.1270,307499,27.1,17.945,33.259,43.801,25.00,0.0,1.309,17.708, NaN, NaN,23.952,   NaN,15.46,1010.79,92.17,15.46,17.4,16.3,7.1,6.5,331.2,330.2,6.5,5.9,NaN, NaN,18.0,313.2,314.5,1152537920,1152537920,2,1.3,048320,048320,313.0,31.519560,-120.263997,0.99,NaN,NaN,17.949, NaN,NaN,2.1, NaN, NaN
20060710,194127,2.120,31.186560,-120.930670,0.0332,17.6640,33.3190,0.1490,330060,26.0,17.875,33.283,43.761,1320.12,0.0,1.234,17.663, NaN, NaN,23.988,   NaN,16.24,1012.66,88.77,16.24,8.6,4.2,6.6,6.3,341.2,336.5,6.1,5.7,NaN, NaN,21.0,333.5,64.1,1152560480,1152560479,2,0.5,070880,070879,333.7,31.186453,-120.930656,0.14,NaN,NaN,17.879, NaN,NaN,2.2, NaN, NaN
20060711,014234,1.639,30.847760,-121.601510,0.0586,16.8150,33.0130,0.1420,351719,25.9,17.039,32.990,42.623,235.64,0.0,1.421,16.833, NaN, NaN,23.963,   NaN,16.42,1011.39,94.03,16.42,3.5,1.8,8.2,7.8,345.6,343.7,7.6,7.2,NaN, NaN,21.0,343.9,298.0,1152582140,1152582139,2,0.8,006140,006139,343.9,30.847648,-121.601528,1.03,NaN,NaN,17.043, NaN,NaN,1.8, NaN, NaN
20060711,073225,1.944,30.517320,-122.267090,0.0610,16.9990,33.0020,0.1510,372720,26.3,17.212,32.964,42.758, 0.96,0.0,1.290,16.993, NaN, NaN,23.902,   NaN,17.06,1013.09,88.99,17.06,18.4,16.0,8.8,7.9,352.1,349.6,8.2,7.3,NaN, NaN,23.0,334.9,270.5,1152603140,1152603139,2,1.1,027140,027139,334.9,30.517205,-122.267107,0.71,NaN,NaN,17.216, NaN,NaN,2.0, NaN, NaN
20060711,132432,2.081,30.189310,-122.932630,0.0389,18.7770,33.3650,0.0980,393840,26.7,18.984,33.330,44.886, 8.98,0.0,1.047,18.725, NaN, NaN,23.749,   NaN,17.18,1014.22,91.89,17.17,22.2,21.4,9.6,8.4,7.1,6.5,8.8,7.7,NaN, NaN,20.0,345.9,315.3,1152624261,1152624260,2,1.8,048261,048260,345.9,30.189185,-122.932616,1.28,NaN,NaN,18.989, NaN,NaN,2.2, NaN, NaN
20060711,193800,1.433,29.863330,-123.589900,0.0253,18.6460,33.3070,0.0960,416249,25.7,18.870,33.250,44.680,1464.10,0.0,0.991,18.630, NaN, NaN,23.717,   NaN,18.06,1016.67,86.12,18.06,18.6,15.8,7.0,6.4,3.2,0.3,6.4,5.8,NaN, NaN,15.0,344.2,298.1,1152646670,1152646670,2,1.6,070671,070670,344.2,29.863216,-123.589890,0.57,NaN,NaN,18.875, NaN,NaN,1.1, NaN, NaN
20060712,015601,1.340,30.421450,-124.004260,0.0405,18.5540,33.2450,0.0980,438929,26.0,18.767,33.211,44.534,244.31,0.0,1.159,18.544, NaN, NaN,23.713,   NaN,17.79,1015.27,81.82,17.81,24.9,23.0,10.6,9.2,19.6,17.9,9.9,8.5,NaN, NaN,22.0,357.0,334.7,1152669349,1152669349,2,1.2,006949,006949,356.7,30.421343,-124.004277,1.40,NaN,NaN,18.772, NaN,NaN,1.9, NaN, NaN
20060712,084045,2.590,30.771170,-123.347520,0.0387,18.5520,33.3220,0.0930,463229,27.0,18.761,33.281,44.613, 1.69,0.0,1.066,18.525, NaN, NaN,23.768,   NaN,17.15,1016.73,82.49,17.15,353.7,350.9,7.7,7.9,351.0,347.9,7.1,7.2,NaN, NaN,23.0,355.2,16.4,1152693650,1152693649,2,1.8,031250,031249,355.2,30.771191,-123.347568,1.16,NaN,NaN,18.766, NaN,NaN,2.8, NaN, NaN
20060712,182744,1.714,31.109860,-122.667890,0.0234,18.5250,33.4540,0.0880,498450,26.3,18.738,33.420,44.757,2621.81,0.0,1.066,18.552, NaN, NaN,23.880,   NaN,16.98,1017.96,80.05,16.98,15.5,11.5,9.8,9.3,8.0,3.8,9.4,8.9,NaN, NaN,24.0,349.2,350.1,1152728870,1152728869,2,0.8,066470,066469,348.7,31.109808,-122.667921,0.55,NaN,NaN,18.742, NaN,NaN,2.0, NaN, NaN
20060712,234841,1.638,31.422460,-122.000610,0.0353,17.0600,33.0040,0.1390,517710,26.2,17.294,32.979,42.852,2272.54,0.0,1.178,17.109, NaN, NaN,23.894,   NaN,16.83,1015.85,88.89,16.83,6.8,5.4,9.8,9.7,355.4,353.9,9.2,9.1,NaN, NaN,20.0,347.0,12.4,1152748129,1152748129,2,0.6,085730,085729,346.5,31.422405,-122.000710,0.85,NaN,NaN,17.298, NaN,NaN,2.6, NaN, NaN
20060713,062706,1.817,31.749080,-121.322350,0.1088,16.2410,32.9640,0.1820,541619,26.0,16.462,32.936,42.016, 0.59,0.0,1.757,16.277, NaN, NaN,24.055,   NaN,16.27,1015.31,93.73,16.28,13.8,11.3,10.5,10.1,346.9,344.3,10.0,9.6,NaN, NaN,20.0,333.4,242.5,1152772040,1152772040,2,1.0,023241,023240,333.5,31.748941,-121.322413,0.48,NaN,NaN,16.466, NaN,NaN,1.8, NaN, NaN
20060713,130305,1.627,32.097760,-120.645960,0.1474,16.5720,33.2370,0.2700,565349,26.9,16.791,33.202,42.633, 8.46,0.0,2.112,16.559, NaN, NaN,24.184,   NaN,15.66,1014.50,99.87,15.65,343.7,342.4,9.0,9.8,316.8,315.6,8.5,9.3,NaN, NaN,17.0,338.9,345.7,1152795770,1152795770,2,0.9,046970,046970,338.9,32.097635,-120.645955,0.33,NaN,NaN,16.795, NaN,NaN,1.0, NaN, NaN
20060713,193556,1.812,32.417780,-119.948570,0.0457,17.0880,33.3000,0.2060,588930,26.0,17.319,33.268,43.212,1808.20,0.0,1.514,17.135, NaN, NaN,24.110,   NaN,15.36,1015.54,96.92,15.36,9.9,5.9,4.5,4.3,315.3,310.9,4.0,3.8,1946.5, NaN,21.0,315.0,216.9,1152819350,1152819349,2,0.7,070550,070549,315.8,32.417685,-119.948500,0.61,NaN,NaN,17.323, NaN,NaN,1.2, NaN, NaN
20060714,011543,1.613,32.657060,-119.493480,0.6630,15.1670,33.5760,1.6890,609330,26.6,15.420,33.550,41.722,347.60,0.0,7.698,15.287, NaN, NaN,24.762,   NaN,14.23,1013.11,99.60,14.24,357.6,354.6,6.0,6.1,295.9,292.8,5.6,5.7,NaN, NaN,19.0,299.2,340.6,1152839750,1152839749,2,1.0,004550,004549,299.0,32.657030,-119.493451,0.73,NaN,NaN,15.424, NaN,NaN,1.7, NaN, NaN
20060714,070235,1.455,32.923830,-118.941790,0.1208,19.8090,33.4790,0.2790,630119,26.2,19.988,33.451,46.009, 0.50,0.0,2.280,19.726, NaN, NaN,23.584,   NaN,15.61,1013.47,100.00,15.60,24.0,20.6,4.1,3.4,280.2,277.1,3.6,3.0,NaN, NaN,21.0,267.0,301.0,1152860540,1152860539,2,1.3,025340,025339,267.0,32.923778,-118.941608,0.96,NaN,NaN,19.993, NaN,NaN,1.9, NaN, NaN
20060714,125002,1.260,33.181250,-118.392300,0.1328,21.9820,33.5480,0.3590,650969,26.0,22.168,33.516,48.236,12.02,0.0,2.766,21.895, NaN, NaN,23.043,   NaN,18.25,1012.68,96.62,18.26,30.3,27.1,5.2,4.2,309.2,306.6,4.8,3.8,NaN, NaN,15.0,281.9,231.5,1152881391,1152881390,2,0.8,046191,046190,281.9,33.181182,-118.392172,0.34,NaN,NaN,22.173, NaN,NaN,1.3, NaN, NaN
20060714,183536,1.756,33.240100,-118.264280,0.0723,23.3790,33.6460,0.4070,671729,26.0,23.601,33.614,49.792,2284.08,0.0,3.438,23.391, NaN, NaN,22.709,   NaN,20.06,1012.65,89.66,20.07,285.2,292.7,3.5,2.5,281.4,287.1,3.4,2.4,NaN, NaN,18.0,359.4,33.7,1152902150,1152902150,2,0.2,066950,066950,359.2,33.239985,-118.264340,-0.10,NaN,NaN,23.607, NaN,NaN,1.6, NaN, NaN
20060714,215514,1.586,33.415420,-117.931590,0.0548,22.7930,33.5730,0.2930,683699,26.1,23.009,33.542,49.105,2457.33,0.0,3.606,22.723, NaN, NaN,22.826,   NaN,21.68,1010.58,89.33,21.68,1.3,357.8,8.4,7.9,271.4,267.7,7.9,7.5,NaN, NaN,16.0,269.2,244.7,1152914120,1152914120,2,0.8,078920,078920,269.2,33.415362,-117.931518,0.46,NaN,NaN,23.015, NaN,NaN,1.4, NaN, NaN
20060715,005207,1.511,33.485430,-117.770780,0.1247,21.0470,33.4750,0.5950,694319,26.2,21.286,33.443,47.272,2029.37,0.0,4.410,21.084, NaN, NaN,23.232,   NaN,21.18,1008.89,90.87,21.19,8.8,6.1,8.0,7.8,300.6,297.8,7.9,7.6,NaN, NaN,19.0,292.2,247.7,1152924740,1152924740,2,0.3,003140,003140,292.2,33.485330,-117.770685,0.19,NaN,NaN,21.291, NaN,NaN,1.4, NaN, NaN
20060715,025649,1.453,33.497760,-117.754460,0.4727,19.1890,33.4450,1.7520,701790,26.3,19.533,33.404,45.509,43.68,0.0,6.988,19.324, NaN, NaN,23.666,   NaN,20.08,1009.10,93.31,20.08,34.8,29.1,6.4,5.2,318.2,312.7,6.1,4.9,NaN, NaN,20.0,282.0,189.1,1152932210,1152932210,2,0.5,010610,010610,282.0,33.497655,-117.754371,0.16,NaN,NaN,19.538, NaN,NaN,1.9, NaN, NaN
20060715,053104,1.394,33.669780,-118.083090,0.4838,17.6400,33.4080,1.4240,711029,26.4,17.881,33.379,43.880, 2.70,0.0,6.483,17.727, NaN, NaN,24.060,   NaN,18.85,1010.32,93.95,18.85,308.0,311.6,3.7,3.6,200.8,204.6,3.5,3.5,22.2, NaN,19.0,261.9,223.1,1152941450,1152941450,2,0.5,019850,019850,261.9,33.669761,-118.082928,0.13,NaN,NaN,17.885, NaN,NaN,1.3, NaN, NaN
20060715,092144,1.482,33.885100,-118.448230,0.3786,21.0520,33.5130,1.1740,724889,26.3,21.272,33.476,47.300, 3.28,0.0,6.035,20.942, NaN, NaN,23.260,   NaN,19.89,1010.07,89.91,19.90,356.2,357.6,1.7,1.5,258.1,260.1,1.4,1.1,28.0, NaN,15.0,262.5,282.2,1152955310,1152955309,2,0.7,033710,033709,262.5,33.885095,-118.448146,0.47,NaN,NaN,21.277, NaN,NaN,1.6, NaN, NaN
20060715,102326,1.629,33.890140,-118.493780,0.3110,19.6440,33.4930,0.8120,728579,25.5,19.943,33.441,45.953, 1.59,0.0,5.456,19.382, NaN, NaN,23.588,   NaN,19.48,1009.70,91.85,19.47,300.7,307.2,1.4,1.2,191.6,197.2,1.3,1.1,NaN, NaN,14.0,259.2,281.1,1152959000,1152958999,2,0.3,037400,037399,259.0,33.890138,-118.493630,0.09,NaN,NaN,19.948, NaN,NaN,1.7, NaN, NaN
20060715,131447,1.607,33.820560,-118.635580,0.1969,19.6200,33.5160,0.5930,738869,25.6,19.840,33.484,45.906,186.55,0.0,5.568,19.608, NaN, NaN,23.647,   NaN,19.68,1010.74,90.82,19.68,31.0,36.7,0.6,0.4,337.0,348.0,0.4,0.3,NaN, NaN,16.0,281.2,2.1,1152969290,1152969289,2,0.0,047690,047689,281.2,33.820493,-118.635460,0.05,NaN,NaN,19.845, NaN,NaN,1.4, NaN, NaN
20060715,182255,1.541,33.665390,-118.985400,0.0361,21.1690,33.5140,0.3320,757350,25.8,21.392,33.483,47.427,2338.86,0.0,7.679,21.256, NaN, NaN,23.233,   NaN,20.14,1013.40,87.44,20.15,2.0,0.7,1.5,1.0,284.6,284.8,1.0,0.6,NaN, NaN,19.0,279.5,279.7,1152987770,1152987769,2,0.5,066170,066169,279.4,33.665351,-118.985288,0.12,NaN,NaN,21.397, NaN,NaN,1.6, NaN, NaN
20060715,223812,2.295,33.487220,-119.324620,0.1578,15.9830,33.7400,0.8800,772680,25.8,16.383,33.707,42.819,2393.16,0.0,10.537,16.354, NaN, NaN,24.666,   NaN,17.02,1011.68,93.85,17.02,15.7,11.9,5.5,5.2,290.0,286.0,5.1,4.8,NaN, NaN,16.0,267.9,227.2,1153003100,1153003099,2,0.2,081500,081499,267.9,33.487153,-119.324473,0.08,NaN,NaN,16.387, NaN,NaN,2.1, NaN, NaN
20060716,033702,1.195,33.320740,-119.662820,0.6646,14.7660,33.6160,2.0200,790590,26.7,15.070,33.580,41.423, 2.38,0.0,14.367,14.942, NaN, NaN,24.862,   NaN,15.11,1010.63,94.92,15.11,351.3,348.5,10.0,10.4,296.3,293.4,9.6,10.0,NaN, NaN,18.0,301.0,313.3,1153021010,1153021010,2,0.7,013011,013010,301.0,33.320655,-119.662748,0.45,NaN,NaN,15.074, NaN,NaN,1.3, NaN, NaN
20060716,075542,2.519,33.146760,-120.024060,0.5988,14.5350,33.6110,1.3900,806129,26.8,14.762,33.560,41.109, 0.99,0.0,13.545,14.549, NaN, NaN,24.913,   NaN,14.69,1011.29,97.45,14.70,351.9,348.7,10.6,11.1,298.0,294.6,9.8,10.4,NaN, NaN,20.0,308.3,232.0,1153036550,1153036550,2,1.7,028551,028550,308.3,33.146633,-120.024112,0.80,NaN,NaN,14.766, NaN,NaN,2.3, NaN, NaN
20060716,123015,1.704,33.002660,-120.377410,0.4362,15.9770,33.3970,0.8730,822599,26.2,16.190,33.361,42.241, 1.11,0.0,12.854,15.944, NaN, NaN,24.444,   NaN,15.57,1013.88,94.62,15.56,27.3,22.9,5.5,4.7,352.4,348.5,4.7,3.8,NaN, NaN,18.0,323.4,289.6,1153053020,1153053020,2,1.7,045020,045020,323.2,33.002657,-120.377505,0.63,NaN,NaN,16.194, NaN,NaN,2.1, NaN, NaN
20060716,192748,1.954,32.669280,-121.040550,0.0555,16.2870,33.1050,0.2630,847650,24.9,16.519,33.075,42.228,2165.19,0.0,16.142,16.289, NaN, NaN,24.149,   NaN,15.44,1014.65,94.25,15.44,353.0,349.8,10.2,10.2,313.0,309.5,9.5,9.5,NaN, NaN,18.0,320.4,326.7,1153078071,1153078070,2,0.6,070071,070070,320.4,32.669248,-121.040508,0.35,NaN,NaN,16.523, NaN,NaN,2.1, NaN, NaN
20060717,025210,1.652,32.331730,-121.730150,0.2058,16.2860,33.1550,0.3390,874320,26.7,16.504,33.119,42.264,53.06,0.0,23.483,16.248, NaN, NaN,24.186,   NaN,15.70,1014.17,96.24,15.69,16.0,15.3,11.7,11.1,345.8,345.1,10.9,10.3,NaN, NaN,18.0,329.2,319.1,1153104742,1153104741,2,0.8,010342,010341,329.2,32.331680,-121.730301,0.95,NaN,NaN,16.508, NaN,NaN,1.6, NaN, NaN
20060717,091145,2.834,31.985260,-122.419360,0.0467,17.1820,33.0860,0.1030,897090,26.6,17.399,33.055,43.040, 2.33,0.0,24.305,17.125, NaN, NaN,23.928,   NaN,16.58,1015.45,93.28,16.58,16.8,13.4,9.3,8.6,340.6,337.1,8.6,7.9,NaN, NaN,18.0,320.2,175.1,1153127512,1153127511,2,1.3,033112,033111,320.2,31.985050,-122.419381,0.35,NaN,NaN,17.403, NaN,NaN,3.1, NaN, NaN
20060717,182811,1.760,31.681800,-123.091610,0.0484,16.8630,33.0720,0.1750,930480,24.3,17.082,33.034,42.714,1144.65,0.0,18.477,16.866, NaN, NaN,23.986,   NaN,17.20,1016.36,92.14,17.20,28.7,24.0,7.0,6.2,3.6,358.8,6.2,5.4,NaN, NaN,21.0,330.8,348.5,1153160901,1153160901,2,1.2,066502,066501,330.8,31.681806,-123.091695,0.73,NaN,NaN,17.086, NaN,NaN,2.4, NaN, NaN
20060717,234730,1.799,31.334480,-123.762220,0.0289,18.8970,33.4030,0.0770,949621,25.1,19.118,33.370,45.064,1107.95,0.0,15.861,18.852, NaN, NaN,23.746,   NaN,18.07,1014.69,87.48,18.07,1.1,356.7,8.0,8.0,331.2,326.2,7.2,7.2,NaN, NaN,18.0,333.5,313.3,1153180041,1153180041,2,1.1,085641,085641,333.3,31.334410,-123.762243,1.05,NaN,NaN,19.123, NaN,NaN,1.8, NaN, NaN
20060718,062730,1.508,31.917690,-124.171320,0.0366,18.2420,33.0990,0.0830,973620,25.1,18.451,33.061,44.051, 3.04,0.0,9.454,18.206, NaN, NaN,23.676,   NaN,17.73,1015.11,87.73,17.73,9.5,7.0,6.5,6.0,347.7,345.1,5.9,5.4,NaN, NaN,22.0,334.4,348.1,1153204041,1153204040,2,1.1,023241,023240,334.5,31.917603,-124.171322,1.24,NaN,NaN,18.455, NaN,NaN,1.6, NaN, NaN
20060718,123446,1.867,32.253430,-123.500090,0.0322,18.5980,33.3940,0.1050,995671,24.9,18.805,33.360,44.750, 1.82,0.0,11.266,18.551, NaN, NaN,23.817,   NaN,17.28,1012.99,92.22,17.30,332.9,333.8,5.1,5.6,302.8,304.4,4.4,4.9,NaN, NaN,18.0,331.4,299.9,1153226091,1153226090,2,1.0,045291,045290,331.4,32.253427,-123.500098,0.88,NaN,NaN,18.810, NaN,NaN,1.1, NaN, NaN
20060718,190105,1.471,32.570040,-122.820340,0.0245,17.2530,33.0760,0.1100,1018830,23.6,17.479,33.046,43.106,2313.69,0.0,14.049,17.345, NaN, NaN,23.902,   NaN,17.60,1013.36,92.76,17.58,281.5,293.6,4.3,2.9,269.0,277.6,4.2,2.7,NaN, NaN,22.0,354.7,320.3,1153249251,1153249250,2,0.3,068451,068450,354.7,32.569931,-122.820411,0.54,NaN,NaN,17.483, NaN,NaN,1.9, NaN, NaN
20060719,011100,1.382,32.907200,-122.143240,0.2398,16.6160,33.3980,0.7020,1041030,24.6,17.744,33.353,43.718,633.86,0.0,2.635,17.695, NaN, NaN,24.073,   NaN,18.00,1011.21,91.26,18.00,337.3,334.1,1.7,1.6,291.8,286.7,1.1,1.1,NaN, NaN,18.0,336.4,280.3,1153271452,1153271451,2,1.5,004252,004251,336.4,32.907086,-122.143305,0.45,NaN,NaN,17.748, NaN,NaN,1.1, NaN, NaN
20060719,073236,1.967,33.249320,-121.443380,0.4628,15.7230,33.4140,0.9320,1063920,25.2,16.059,33.375,42.133, 2.41,0.0,3.083,15.768, NaN, NaN,24.485,   NaN,16.56,1011.81,98.29,16.56,244.4,241.8,2.1,1.7,241.5,237.2,2.3,1.9,NaN, NaN,18.0,356.9,36.9,1153294341,1153294341,2,1.0,027142,027141,356.9,33.249223,-121.443470,0.12,NaN,NaN,16.063, NaN,NaN,1.8, NaN, NaN
20060719,135759,1.603,33.585400,-120.764660,2.0047,15.7630,33.5740,8.7900,1087050,23.9,16.009,33.540,42.273,144.88,0.0,17.673,15.803, NaN, NaN,24.623,   NaN,15.59,1011.69,100.00,15.59,285.8,296.2,2.4,1.9,235.6,244.0,2.3,1.8,NaN, NaN,18.0,319.0,338.9,1153317471,1153317471,2,1.0,050271,050271,319.0,33.585306,-120.764625,0.29,NaN,NaN,16.013, NaN,NaN,1.6, NaN, NaN
20060719,185147,0.801,33.747560,-120.413560,0.5943,17.7090,33.5580,2.9670,1104691,23.4,17.986,33.522,44.150,1525.44,0.0,9.192,17.748, NaN, NaN,24.144,   NaN,17.16,1012.87,100.00,17.17,197.6,189.1,2.1,2.2,159.3,152.1,2.5,2.6,NaN, NaN,21.0,324.9,250.9,1153335111,1153335110,2,0.1,067911,067910,324.9,33.747486,-120.413485,-0.01,NaN,NaN,17.990, NaN,NaN,0.7, NaN, NaN
20060719,223146,1.863,33.876820,-120.136480,0.1070,19.6710,33.5220,0.5270,1117890,24.9,19.939,33.495,46.016,1724.18,0.0,1.421,19.722, NaN, NaN,23.630,   NaN,17.70,1011.86,96.54,17.70,26.6,23.6,5.2,4.1,246.6,244.4,4.8,3.6,NaN, NaN,18.0,216.3,201.4,1153348311,1153348310,2,1.0,081111,081110,216.3,33.876835,-120.136443,0.97,NaN,NaN,19.944, NaN,NaN,1.8, NaN, NaN
20060720,043020,1.319,34.178910,-119.518020,0.1883,19.8190,33.5010,  NaN,1139400,24.6,19.998,33.462,46.033, 3.43,0.0,1.514,19.723, NaN, NaN,23.590,   NaN,17.33,1012.31,99.94,17.34,314.9,317.7,3.7,3.5,254.2,256.9,3.5,3.3,NaN, NaN,18.0,306.1,224.6,1153369822,1153369821,2,0.3,016222,016221,306.1,34.178813,-119.517961,0.18,NaN,NaN,20.003, NaN,NaN,1.1, NaN, NaN
20060720,070052,1.291,34.256140,-119.328360,0.2592,18.5620,33.4570,0.7410,1148430,24.7,18.695,33.429,44.726, 2.79,0.0,2.187,18.602, NaN, NaN,23.897,   NaN,17.41,1013.03,100.00,17.40,62.6,70.6,2.3,1.5,290.5,302.9,2.2,1.5,NaN, NaN,19.0,212.1,123.1,1153378852,1153378851,2,0.6,025252,025251,212.1,34.256193,-119.328217,0.29,NaN,NaN,18.699, NaN,NaN,1.3, NaN, NaN
20060720,081730,1.754,34.224310,-119.416670,0.4287,19.7200,33.4920,1.2800,1153020,24.9,19.964,33.459,45.997, 2.72,0.0,3.233,19.685, NaN, NaN,23.596,   NaN,16.92,1012.96,100.00,16.91,347.6,344.8,2.6,2.8,270.1,267.0,2.2,2.4,36.9, NaN,20.0,286.8,294.9,1153383442,1153383441,2,0.6,029842,029841,286.8,34.224240,-119.416597,0.77,NaN,NaN,19.969, NaN,NaN,1.9, NaN, NaN
20060720,124828,1.329,34.401860,-119.801260,1.1719,17.5370,33.5170,7.6590,1169280,24.7,18.740,33.477,44.826, 3.24,0.0,11.284,18.561, NaN, NaN,23.923,   NaN,16.89,1012.88,100.00,16.90,300.4,306.5,1.2,1.3,221.3,228.2,1.2,1.2,28.4, NaN,17.0,293.4,300.1,1153399702,1153399701,2,0.3,046102,046101,293.4,34.401810,-119.801171,0.26,NaN,NaN,18.744, NaN,NaN,1.3, NaN, NaN
20060720,184228,1.020,34.285200,-120.026580,0.2967,18.7490,33.5390,3.0090,1190520,22.6,19.072,33.500,45.177,1770.00,0.0,3.719,18.781, NaN, NaN,23.857,   NaN,17.39,1014.45,100.00,17.39,124.4,113.7,3.1,1.9,277.0,269.4,3.2,2.0,NaN, NaN,18.0,148.7,31.8,1153420941,1153420941,2,0.7,067342,067341,148.7,34.285398,-120.026615,0.16,NaN,NaN,19.077, NaN,NaN,0.5, NaN, NaN
20060720,214053,1.892,34.461260,-120.487970,0.6165,16.9030,33.5620,4.9190,1201231,24.1,17.269,33.504,43.438,1958.83,0.0,5.194,17.039, NaN, NaN,24.302,   NaN,16.93,1014.33,95.89,16.93,3.3,2.6,4.2,4.3,284.2,283.4,4.0,4.1,26.4, NaN,15.0,276.6,59.9,1153431651,1153431651,2,0.3,078051,078051,276.6,34.461235,-120.487826,-0.08,NaN,NaN,17.273, NaN,NaN,1.6, NaN, NaN
20060720,224533,1.779,34.451480,-120.528500,0.5084,17.6240,33.5500,3.5660,1205101,24.5,17.978,33.506,44.124,1242.91,0.0,5.008,17.775, NaN, NaN,24.133,   NaN,16.89,1014.01,96.37,16.89,26.5,22.0,5.0,4.4,288.8,284.2,4.7,4.1,NaN, NaN,18.0,255.3,304.7,1153435521,1153435521,2,0.3,081921,081921,255.3,34.451473,-120.528358,0.30,NaN,NaN,17.982, NaN,NaN,1.5, NaN, NaN
20060721,024051,1.634,34.323060,-120.811700,1.0305,17.5170,33.5350,2.1260,1219230,24.3,17.769,33.496,43.910,77.23,0.0,9.173,17.582, NaN, NaN,24.177,   NaN,16.32,1013.50,97.27,16.34,18.7,16.0,6.2,5.7,326.8,323.9,5.6,5.2,NaN, NaN,16.0,307.3,283.0,1153449650,1153449650,2,0.9,009650,009650,307.3,34.323010,-120.811731,0.19,NaN,NaN,17.773, NaN,NaN,1.1, NaN, NaN
20060721,072908,1.600,34.132550,-121.169900,0.4924,17.0240,33.4380,0.4940,1236540,24.9,17.253,33.396,43.297, 3.37,0.0,3.943,17.043, NaN, NaN,24.224,   NaN,15.93,1013.68,100.00,43.64,2.9,359.3,4.1,4.3,320.1,316.0,3.6,3.8,NaN, NaN,15.0,316.3,272.0,1153466961,1153466960,2,1.0,026961,026960,316.3,34.132367,-121.170018,0.54,NaN,NaN,17.257, NaN,NaN,1.8, NaN, NaN
20060721,130804,1.388,33.819530,-121.845960,0.5876,17.8250,33.4250,1.2420,1256850,25.2,18.087,33.387,44.088, 6.06,0.0,4.895,17.832, NaN, NaN,24.016,   NaN,15.77,1013.78,99.04,15.78,276.8,283.7,4.1,3.0,263.5,267.9,4.0,2.9,NaN, NaN,14.0,357.9,86.5,1153487271,1153487270,2,0.8,047271,047270,357.9,33.819420,-121.845973,0.00,NaN,NaN,18.091, NaN,NaN,1.7, NaN, NaN
20060721,192925,1.274,33.480730,-122.528300,0.0456,17.4040,32.9310,0.2630,1279740,24.4,17.603,32.896,43.048,2300.82,0.0,0.617,17.476, NaN, NaN,23.757,   NaN,16.66,1014.41,93.45,16.67,16.3,13.7,4.6,4.3,321.4,318.7,4.2,3.9,NaN, NaN,16.0,304.0,143.9,1153510161,1153510160,2,0.8,070161,070160,304.0,33.480570,-122.528150,0.80,NaN,NaN,17.607, NaN,NaN,1.2, NaN, NaN
20060722,014711,1.584,33.144540,-123.230140,0.0397,18.6910,33.1280,0.1040,1302421,25.2,18.918,33.092,44.536,323.41,0.0,0.412,18.696, NaN, NaN,23.584,   NaN,17.34,1012.44,93.67,17.34,9.8,7.0,6.3,5.9,328.5,325.6,5.8,5.4,NaN, NaN,15.0,326.8,207.6,1153532843,1153532842,2,0.3,006443,006442,326.8,33.144400,-123.230238,0.42,NaN,NaN,18.923, NaN,NaN,2.1, NaN, NaN
20060722,075307,2.286,32.820920,-123.922430,0.0383,18.1280,33.0910,0.0870,1324381,24.9,18.340,33.053,43.936, 4.14,0.0,0.300,18.110, NaN, NaN,23.698,   NaN,17.05,1013.58,95.81,17.05,23.8,21.4,5.2,4.4,335.6,333.9,4.5,3.6,NaN, NaN,22.0,306.1,293.2,1153554801,1153554801,2,1.5,028402,028401,305.8,32.820945,-123.922621,1.26,NaN,NaN,18.344, NaN,NaN,2.3, NaN, NaN